Flag for U.S.A. Weather past 2 weeks in Fall River, Massachusetts, U.S.A.

Now
31 °F

Clear.


Feels Like: 26 °F
Forecast: 28 / 45 °F
Wind: 5 mph from Southwest

Location: New Bedford Regional Airport

Current Time: Mar 30, 2015 at 5:42:48 AM

Latest Report: Mar 30, 2015 at 4:53 AM


Visibility: 10 mi

Pressure: 30.01 "Hg

Humidity: 85%

Dew point: 27 °F

Location of Fall RiverLocation

Historic Weather in Fall River — Graph

°F

Fall River temperature yesterday

Maximum temperature yesterday: 41 °F (at 2:53 PM)
Minimum temperature yesterday: 23 °F (at 5:53 AM)
Average temperature yesterday: 31 °F

Past Weeks' High & Low Weather Summary

 TemperatureHumidityPressure
High54 °F (Mar 26, 9:53 PM)100% (Mar 26, 4:53 AM)30.42 "Hg (Mar 26, 4:53 AM)
Low15 °F (Mar 20, 5:53 AM)18% (Mar 16, 1:53 PM)29.39 "Hg (Mar 17, 3:53 PM)
Average33 °F64%29.97 "Hg
* Reported Mar 15 3:53 AM — Mar 30 3:53 AM, Fall River, Weather by CustomWeather, © 2015

Note: Actual official high and low records may vary slightly from our data, if they occured in-between our weather recording intervals... More about our weather records

Advertising

Fall River weather history for previous 24 hours

 ConditionsComfort  
Time TempWeatherWind HumidityBarometerVisibility
3:53 AM
Mon, Mar 30
30 °FClear.3 mph85%30.04 "Hg10 mi
2:53 AM29 °FClear.3 mph89%30.06 "Hg10 mi
1:53 AM30 °FClear.5 mph85%30.08 "Hg10 mi
12:53 AM31 °FClear.7 mph82%30.10 "Hg10 mi
11:53 PM
Sun, Mar 29
29 °FClear.6 mph82%30.11 "Hg10 mi
10:53 PM30 °FClear.5 mph75%30.11 "Hg10 mi
9:53 PM30 °FClear.5 mph75%30.14 "Hg10 mi
8:53 PM31 °FClear.7 mph67%30.14 "Hg10 mi
7:53 PM32 °FSunny.5 mph61%30.15 "Hg10 mi
6:53 PM35 °FSunny.8 mph54%30.13 "Hg10 mi
5:53 PM38 °FSunny.10 mph48%30.12 "Hg10 mi
4:53 PM38 °FSunny.9 mph46%30.12 "Hg10 mi
3:53 PM39 °FSunny.10 mph46%30.13 "Hg10 mi
2:53 PM41 °FSunny.5 mph24%30.15 "Hg10 mi
1:53 PM39 °FSunny.7 mph33%30.16 "Hg10 mi
12:53 PM37 °FSunny.9 mph42%30.17 "Hg10 mi
11:53 AM36 °FSunny.8 mph50%30.19 "Hg10 mi
10:53 AM32 °FSunny.6 mph47%30.20 "Hg10 mi
9:53 AM31 °FPassing clouds.7 mph57%30.19 "Hg10 mi
8:53 AM28 °FOvercast.6 mph66%30.17 "Hg10 mi
7:53 AM25 °FOvercast.6 mph72%30.16 "Hg10 mi
6:53 AM23 °FPassing clouds.6 mph78%30.13 "Hg10 mi
5:53 AM23 °FPassing clouds.3 mph78%30.10 "Hg10 mi
Weather by CustomWeather, © 2015

See weather overviewHow to use our weather pages